Location: Fort Wayne
(41.1310°N, 85.1290°W)
Time: 01:50:43
(UTC-04:00)

IDEFIX/ARIANE 42P - Visible Passes

Search period start: 20 April 2014 00:00
Search period end: 30 April 2014 00:00
Orbit: 785 x 804 km, 98.3° (Epoch: 18 April)

Date Brightness Start Highest point End Pass type
(mag) Time Alt. Az. Time Alt. Az. Time Alt. Az.
20 Apr 3.8 22:14:32 10° SSW 22:19:20 39° W 22:24:11 10° NNW visible
21 Apr 2.8 21:46:02 10° S 21:51:11 72° WSW 21:56:22 10° NNW visible
22 Apr 2.6 21:18:02 10° SSE 21:23:08 64° ENE 21:28:15 10° N visible
22 Apr 5.1 23:00:14 10° SW 23:03:11 15° W 23:06:08 10° NW visible
23 Apr 3.3 20:50:32 10° SE 20:55:12 35° ENE 20:59:52 10° N visible
23 Apr 4.3 22:30:27 10° SSW 22:34:50 28° W 22:39:15 10° NW visible
24 Apr 3.3 22:01:36 10° S 22:06:36 51° W 22:11:39 10° NNW visible
25 Apr 2.5 21:33:19 10° SSE 21:38:29 88° ENE 21:43:42 10° NNW visible
25 Apr 5.4 23:18:08 10° W 23:18:46 10° W 23:19:24 10° W visible
26 Apr 2.9 21:05:32 10° SE 21:10:29 49° ENE 21:15:28 10° N visible
26 Apr 4.8 22:46:38 10° SW 22:50:21 20° W 22:54:06 10° NW visible
27 Apr 3.9 22:17:20 10° SSW 22:22:04 36° W 22:26:49 10° NNW visible
28 Apr 2.9 21:48:45 10° S 21:53:53 66° WSW 21:59:03 10° NNW visible
29 Apr 2.6 21:20:41 10° SSE 21:25:49 69° ENE 21:30:58 10° N visible
29 Apr 5.1 23:03:17 10° WSW 23:05:55 14° W 23:08:33 10° WNW visible
